User: anonymous   Login
Location: NJAA Observatory
(40.6819°N, 74.8979°W)
Time: 09:16:42
(UTC-04:00)
Language:

Cosmos 1939 Rocket - Orbit

View from above orbital plane
View from above orbital plane
View from above satellite
View from above satellite

Ground track
Ground track

The orbit data is extracted from the following two-line orbital elements,

1 19046U 88032B   16239.49594752  .00000927  00000-0  74358-4 0  9996
2 19046  97.5715 288.1617 0039425 254.6900 104.9966 15.01968031528406
Epoch (UTC): 26 August 2016 11:54:09
Eccentricity: 0.0039425
inclination: 97.5715°
perigee height: 533 km
apogee height: 588 km
right ascension of ascending node: 288.1617°
argument of perigee: 254.6900°
revolutions per day: 15.01968031
mean anomaly at epoch: 104.9966°
orbit number at epoch: 52840

The dashed part of the orbit path shows where the satellite is in the earth's shadow,  

DLR